Regional Weather Roundup
Issued by NWS

Home | Current Version | Previous Version | Graphics & Text | Print | Product List | Glossary On
Versions: 1 2 3 4 5 6 7 8 9 10 11 12 13 14 15 16 17 18 19 20 21 22 23 24 25 26 27 28 29 30 31 32 33 34 35 36 37 38 39 40 41
000
ASUS45 KCYS 270810
RWRWY

WYOMING REGIONAL WEATHER ROUNDUP
NATIONAL WEATHER SERVICE CHEYENNE WY
100 AM MST SAT DEC 27 2014

NOTE:  "FAIR" INDICATES FEW OR NO CLOUDS BELOW 12,000 FEET
WITH NO SIGNIFICANT WEATHER AND/OR OBSTRUCTIONS TO VISIBILITY.

WYZ001-270900-
YELLOWSTONE NATIONAL PARK

CITY           SKY/WX    TMP DP  RH WIND       PRES   REMARKS
LK YELLOWSTONE   N/A     -8 -13  78 CALM      30.03S
W YELLOWSTONE  NOT AVBL

$$
WYZ002>013-054>058-071-098>099-270900-
NORTHERN WYOMING

CITY           SKY/WX    TMP DP  RH WIND       PRES   REMARKS
JACKSON        FAIR      -2  -4  92 N3        30.09S
CODY           FAIR       9   3  78 S7        30.06F WCI  -3
GREYBULL       CLOUDY     5   5 100 CALM      30.16F FOG
WORLAND        CLOUDY     6   3  87 S8        30.14F WCI  -7
SHERIDAN       FAIR       4   1  88 SW5       30.10F WCI  -5
BUFFALO        FAIR       8   5  87 CALM      30.06F
GILLETTE       CLOUDY    16  12  84 CALM      30.08S
HULETT           N/A    N/A N/A N/A MISG        N/A
NEWCASTLE      CLOUDY    10   7  85 N8        30.10S WCI  -1

$$
WYZ014>020-022>026-101>103-270900-
CENTRAL WYOMING

CITY           SKY/WX    TMP DP  RH WIND       PRES   REMARKS
BIG PINEY      CLOUDY     7   3  84 CALM      30.07S
PINEDALE       CLOUDY     5   3  92 CALM      30.07S
DUBOIS         NOT AVBL
LANDER         CLOUDY    13   7  77 CALM      30.08S
RIVERTON       CLOUDY    11   8  88 W3        30.09F
CASPER         CLOUDY     7   4  87 SW9       30.09S WCI  -7
DOUGLAS        FAIR       7   4  87 NW12      30.10R WCI  -8

$$
WYZ021-027>030-104>119-270900-
SOUTHERN WYOMING

CITY           SKY/WX    TMP DP  RH WIND       PRES   REMARKS
EVANSTON       CLOUDY     8   5  87 SW3       30.11R
FORT BRIDGER   FAIR       8   4  85 W15       30.12R WCI  -9
ROCK SPRINGS   CLOUDY     8   5  87 S6        30.08S WCI  -2
DIXON          FLURRIES   2  -2  83 CALM      30.11R
RAWLINS        FAIR      -4  -9  79 MISG      30.05R
SARATOGA       FLURRIES  -2  -6  84 S8        30.04S WCI -17
LARAMIE        LGT SNOW  -5  -7  91 CALM      29.99S FOG
CHEYENNE       FAIR       6   0  76 W12       30.01S WCI  -9
TORRINGTON     FAIR       8   6  92 NW6       30.10S WCI  -2
PINE BLUFFS    FAIR       0  -4  85 MISG      30.08S

$$



USA.gov is the U.S. government's official web portal to all federal, state and local government web resources and services.